#timestamp,LO_Frequency,Hit,StdDev 
1626354015.7,286047000.4,N
1626354035.6,286047000.0,N
1626354055.4,286047001.0,N
1626354075.2,286047000.3,N
1626354095.1,286047001.0,N
1626354096.0,286047001.0,N
1626354115.8,286046998.1,N
1626354135.6,286047000.9,N
1626354155.5,286047000.7,N
1626354175.3,286047000.6,N
1626354195.2,286047001.1,N
1626354215.9,286047001.2,N
1626354235.7,286047001.1,N
1626354255.6,286047001.2,N
1626354275.4,286046998.3,N
1626354295.3,286046998.1,N
1626354315.1,286046998.5,N
1626354316.0,286046998.5,N
1626354335.8,286046998.1,N
1626354355.7,286046998.1,N
1626354375.5,286046998.5,N
1626354395.3,286047001.2,N
1626354415.2,286047000.7,N
1626354435.0,286047000.5,N
1626354435.9,286047000.5,N
1626354455.8,286047000.1,N
1626354475.6,286047001.1,N
1626354495.4,286047001.1,N
1626354515.3,286047000.5,N
1626354535.1,286047000.8,N
1626354555.9,286047000.4,N
1626354575.7,286047000.3,N
1626354595.5,286047000.4,N
1626354615.4,286047001.2,N
1626354635.2,286046998.2,N
1626354655.0,286047000.9,N
1626354655.9,286047000.9,N
1626354675.8,286047000.3,N
1626354695.6,286047000.0,N
1626354715.5,286047000.3,N
1626354735.3,286047001.0,N
1626354755.1,286047000.4,N
1626354775.9,286047000.3,N
1626354795.7,286047001.0,N
1626354815.5,286047000.7,N
1626354835.4,286047000.5,N
1626354855.2,286047000.8,N
1626354875.1,286047001.1,N
1626354876.0,286047001.1,N
1626354895.8,286047001.1,N
1626354915.6,286047000.0,N
1626354935.5,286047000.8,N
1626354955.3,286047001.1,N
1626354975.2,286047000.4,N
1626354995.9,286047000.9,N
1626355015.7,286046998.6,N
1626355035.6,286046998.6,N
1626355055.4,286047000.9,N
1626355075.2,286046998.2,N
1626355095.1,286046998.6,N
1626355096.0,286046998.6,N
1626355115.8,286047000.9,N
1626355135.7,286047001.1,N
1626355155.5,286047001.0,N
1626355175.3,286046998.2,N
1626355195.2,286047000.6,N
1626355215.0,286047000.8,N
1626355215.9,286047000.8,N
1626355235.7,286046998.5,N
1626355255.6,286046998.6,N
1626355275.4,286046998.4,N
1626355295.3,286046998.5,N
1626355315.1,286046998.6,N
1626355335.8,286047000.8,N
1626355355.7,286046998.1,N
1626355375.5,286046998.3,N
1626355395.4,286046998.5,N
1626355415.2,286046998.5,N
1626355435.0,286046998.5,N
1626355435.9,286046998.5,N
1626355455.8,286046998.6,N
1626355475.6,286047000.7,N
1626355495.4,286047000.8,N
1626355515.3,286046998.8,N
1626355535.1,286046998.2,N
1626355555.9,286046999.2,N
1626355575.7,286046999.0,N
1626355595.5,286047001.1,N
1626355615.4,286046998.6,N
1626355635.2,286046998.5,N
1626355655.1,286047001.1,N
1626355656.0,286047001.1,N
1626355675.8,286047001.2,N
1626355695.6,286047001.1,N
1626355715.5,286046998.2,N
1626355735.3,286046998.9,N
1626355755.1,286046998.1,N
1626355775.9,286046998.6,N
1626355795.7,286046998.9,N
1626355815.6,286046999.3,N
1626355835.4,286046998.4,N
1626355855.2,286046998.7,N
1626355875.1,286046998.3,N
1626355876.0,286046998.3,N
1626355895.8,286046998.9,N
1626355915.7,286046998.9,N
1626355935.5,286046999.1,N
1626355955.3,286046999.1,N
1626355975.2,286046999.5,N
1626355995.0,286046998.8,N
1626355995.9,286046998.8,N
1626356015.8,286046999.5,N
1626356035.6,286046998.9,N
1626356055.4,286046998.4,N
1626356075.3,286046999.2,N
1626356095.1,286046999.6,N
1626356115.8,286046996.9,Y
1626356135.7,286046998.2,P
1626356155.5,286047000.6,N
1626356175.4,286047000.6,N
1626356195.2,286047000.8,N
1626356215.0,286047000.4,N
1626356215.9,286047000.4,N
1626356235.8,286047000.3,N
1626356255.6,286047000.5,N
1626356275.5,286047000.6,N
1626356295.3,286047000.6,N
1626356315.1,286047000.5,N
1626356335.9,286047000.6,N
1626356355.7,286047000.6,N
1626356375.5,286047000.6,N
1626356395.4,286047000.6,N
1626356415.2,286047000.6,N
1626356435.1,286047000.6,N
1626356436.0,286047000.6,N
1626356455.8,286047001.2,N
1626356475.6,286047001.1,N
1626356495.5,286047000.6,N
1626356515.3,286047001.1,N
1626356535.2,286047000.6,N
1626356555.9,286047001.1,N
1626356575.7,286047001.1,N
1626356595.6,286047000.6,N
1626356615.4,286047000.3,N
1626356635.2,286047000.7,N
1626356655.1,286047000.8,N
1626356656.0,286047000.8,N
1626356675.8,286047001.2,N
1626356695.7,286047000.6,N
1626356715.5,286047000.8,Y
1626356735.3,286046998.5,P
1626356755.2,286046998.5,N
1626356775.0,286046998.8,N
1626356775.9,286046998.8,N
1626356795.8,286046998.2,N
1626356815.6,286046998.7,N
1626356835.4,286046998.7,N
1626356855.3,286046998.1,N
1626356875.1,286046998.2,N
1626356895.8,286046998.1,N
1626356915.7,286046998.2,N
1626356935.5,286046998.4,N
1626356955.4,286046999.3,N
1626356975.2,286046998.7,N
1626356995.0,286046998.8,N
1626356995.9,286046998.8,N
1626357015.8,286046998.2,Y
1626357035.6,286047001.0,P
1626357055.5,286047000.3,N
1626357075.3,286047001.0,N
1626357095.1,286047000.5,N
1626357115.9,286047000.5,N
1626357135.7,286047000.5,N
1626357155.5,286047001.1,N
1626357175.4,286047001.1,N
1626357195.2,286047000.7,N
1626357215.1,286047001.1,N
1626357216.0,286047001.1,N
1626357235.8,286047000.8,N
1626357255.6,286047000.7,N
1626357275.5,286047000.9,N
1626357295.3,286047001.0,N
1626357315.1,286047001.0,N
1626357335.9,286047000.7,N
1626357355.7,286047000.6,N
1626357375.6,286047001.1,N
1626357395.4,286047001.1,N
1626357415.2,286047000.8,N
1626357435.1,286047001.1,N
1626357436.0,286047001.1,N
1626357455.8,286047000.8,N
1626357475.7,286047000.7,N
1626357495.5,286047001.2,N
1626357515.3,286047001.2,N
1626357535.2,286047001.2,N
1626357555.9,286047000.8,N
1626357575.7,286047000.8,N
1626357595.6,286046998.1,Y
